AEROCUBE 6B

Last updated on Sat Aug 15 2026 00:03:44 GMT+0000 (Coordinated Universal Time)

1 40046U 14033AN 26226.40272466 .00003664 00000+0 29414-3 0 9995 2 40046 97.7230 32.6639 0039513 163.8089 196.4407 15.00085065655488
UTC large
Height (km)
Speed (km/s)
/
Latitude / Longitude
Inclination (degrees)
Orbital Period (minutes)
Azimuth
Elevation
Range (km)
Doppler Factor

Next 0 passes for location: London (51.5072 / 0.1276)

No passes found over London.
AEROCUBE 6B